GW7367 Weather Reports


time (UTC)temp
C
wind
direction
speed
KPH
gust
KPH
rain 1hr
cm
rain 24hr
cm
rain mn
cm
humidity
%
barometer
mb
20260507094220 11 185 3.2 6.4 0.00 0.00 0.00 80 1023.6
20260507092718 11 206 3.2 6.4 0.00 0.00 0.00 81 1023.6
20260507091213 11 213 3.2 8.0 0.00 0.00 0.00 82 1023.6
20260507085713 11 213 3.2 8.0 0.00 0.00 0.00 82 1023.6
20260507084209 11 191 3.2 9.7 0.00 0.00 0.00 83 1023.6
20260507082705 11 193 4.8 12.9 0.00 0.00 0.00 82 1023.6
20260507081205 11 207 6.4 16.1 0.00 0.00 0.00 83 1023.3
20260507075705 11 202 4.8 11.3 0.00 0.00 0.00 84 1023.3
20260507074202 11 202 6.4 14.5 0.00 0.00 0.00 84 1023.6
20260507072658 11 205 6.4 14.5 0.00 0.00 0.00 85 1023.3
20260507071155 12 204 6.4 12.9 0.00 0.00 0.00 85 1023.3
20260507065651 12 188 6.4 14.5 0.00 0.00 0.00 84 1023.3
20260507064150 12 188 6.4 14.5 0.00 0.00 0.00 84 1023.3
20260507062646 12 175 6.4 12.9 0.00 0.00 0.00 83 1023.3
20260507061145 12 198 8.0 14.5 0.00 0.00 0.00 83 1023.3
20260507055641 12 195 4.8 9.7 0.00 0.00 0.00 82 1023.6
20260507054136 12 195 4.8 9.7 0.00 0.00 0.00 82 1023.6
20260507052636 12 200 4.8 9.7 0.00 0.00 0.00 81 1023.6
20260507051132 12 222 4.8 14.5 0.00 0.00 0.00 81 1023.6
20260507045628 12 196 4.8 11.3 0.00 0.00 0.00 80 1023.3
20260507044125 13 195 4.8 9.7 0.00 0.00 0.00 79 1023.3
20260507042620 13 224 4.8 11.3 0.00 0.00 0.00 78 1023.3
20260507035703 13 229 6.4 12.9 0.00 0.00 0.00 75 1023.3
20260507034159 13 229 6.4 12.9 0.00 0.00 0.00 75 1023.3
20260507032658 13 220 6.4 12.9 0.00 0.00 0.00 74 1022.9
20260507031153 13 203 4.8 11.3 0.00 0.00 0.00 72 1022.9
20260507025650 14 198 4.8 11.3 0.00 0.00 0.00 72 1022.9
20260507024148 14 215 4.8 12.9 0.00 0.00 0.00 72 1022.6
20260507022644 14 198 6.4 17.7 0.00 0.00 0.00 71 1022.6
20260507021143 14 191 4.8 12.9 0.00 0.00 0.00 71 1022.6
20260507015642 14 204 6.4 16.1 0.00 0.00 0.00 71 1022.6
20260507014138 14 214 6.4 17.7 0.00 0.00 0.00 71 1022.6
20260507012635 14 233 9.7 17.7 0.00 0.00 0.00 72 1022.6
20260507011131 14 233 12.9 24.1 0.00 0.00 0.00 72 1022.6
20260507005625 14 233 12.9 24.1 0.00 0.00 0.00 72 1022.6
20260507004121 14 217 9.7 20.9 0.00 0.00 0.00 72 1022.9
20260507002621 14 207 8.0 17.7 0.00 0.00 0.00 72 1022.9
20260507001117 13 218 11.3 27.4 0.00 0.00 0.00 72 1022.9
20260506235616 14 220 11.3 27.4 0.00 0.00 0.00 71 1022.9
20260506234116 13 223 12.9 24.1 0.00 0.00 0.00 71 1022.9
20260506232612 14 213 9.7 24.1 0.00 0.00 0.00 70 1022.9
20260506231109 13 219 9.7 20.9 0.00 0.00 0.00 69 1022.9
20260506225604 13 235 16.1 29.0 0.00 0.00 0.00 70 1022.9
20260506224100 13 242 16.1 30.6 0.00 0.00 0.00 69 1022.9
20260506222555 14 247 17.7 29.0 0.00 0.00 0.00 67 1022.9
20260506221053 14 236 14.5 30.6 0.00 0.00 0.00 66 1022.9
20260506215553 14 215 12.9 24.1 0.00 0.00 0.00 66 1022.9
20260506214049 13 227 14.5 24.1 0.00 0.00 0.00 68 1023.3
20260506212547 14 224 12.9 27.4 0.00 0.00 0.00 68 1023.3
20260506211047 14 211 9.7 24.1 0.00 0.00 0.00 68 1023.3
20260506205108 13 244 17.7 29.0 0.00 0.00 0.00 69 1022.9
20260506202103 13 212 9.7 20.9 0.00 0.00 0.00 70 1022.9